Flag for Germany Weather past 2 weeks in Meppen, Lower Saxony, Germany

Now
58 °F

Refreshingly cool.


Feels Like: 59 °F
Forecast: 40 / 62 °F
Wind: 3 mph from Southeast

Location: Meppen

Current Time: Apr 19, 2015 at 6:19:49 PM

Latest Report: Apr 19, 2015 at 4:00 PM


Visibility: 7 mi

Pressure: 30.21 "Hg

Humidity: 36%

Dew point: 31 °F

Location of MeppenLocation

Historic Weather in Meppen — Graph

°F

Meppen temperature yesterday

Maximum temperature yesterday: 56 °F (at 3:00 PM)
Minimum temperature yesterday: 31 °F (at 7:00 AM)
Average temperature yesterday: 45 °F

Past Weeks' High & Low Weather Summary

 TemperatureHumidityPressure
High72 °F (Apr 15, 4:00 PM)97% (Apr 9, 10:00 AM)30.60 "Hg (Apr 9, 10:00 AM)
Low28 °F (Apr 5, 7:00 AM)31% (Apr 10, 6:00 PM)29.92 "Hg (Apr 11, 6:00 AM)
Average47 °F70%30.26 "Hg
* Reported Apr 4 4:00 PM — Apr 19 4:00 PM, Meppen, Weather by CustomWeather, © 2015

Note: Actual official high and low records may vary slightly from our data, if they occured in-between our weather recording intervals... More about our weather records

Advertising

Meppen weather history for previous 24 hours

 ConditionsComfort  
Time TempWeatherWind HumidityBarometerVisibility
4:00 PM
Sun, Apr 19
58 °FRefreshingly cool.3 mph36%30.21 "Hg7 mi
3:00 PM56 °FRefreshingly cool.2 mph42%30.21 "Hg7 mi
1:00 PM51 °FCool.3 mph57%30.21 "Hg6 mi
12:00 PM48 °FCool.2 mph65%30.22 "Hg7 mi
10:00 AM44 °FQuite cool.2 mph76%30.21 "Hg6 mi
9:00 AM42 °FQuite cool.2 mph80%30.21 "Hg7 mi
8:00 AM40 °FChilly.2 mph84%30.20 "Hg6 mi
7:00 AM38 °FChilly.2 mph86%30.20 "Hg6 mi
6:00 AM38 °FChilly.2 mph89%30.21 "Hg6 mi
4:00 AM37 °FChilly.2 mph90%30.23 "Hg6 mi
3:00 AM36 °FChilly.2 mph91%30.25 "Hg6 mi
2:00 AM35 °FChilly.2 mph90%30.28 "Hg4 mi
1:00 AMN/APassing clouds.N/AN/AN/A9 mi
12:00 AM38 °FChilly.1 mph87%30.30 "Hg7 mi
10:00 PM
Sat, Apr 18
43 °FQuite cool.3 mph80%30.32 "Hg7 mi
9:00 PM46 °FCool.2 mph73%30.31 "Hg7 mi
7:00 PM54 °FCool.5 mph38%30.29 "Hg10 mi
6:00 PM54 °FCool.5 mph46%30.30 "Hg9 mi
Weather by CustomWeather, © 2015

See weather overviewHow to use our weather pages